Location: Chuathbaluk
(61.5726°N, 159.2454°W)
Time: 15:16:27
(UTC+00:00)

NOAA 15 - Pass Details

Date: 25 January 2021
Orbit: 798 x 812 km, 98.7° (Epoch: 01 March)

Event Time Altitude Azimuth Distance (km) Brightness Sun altitude
Rises 17:44:26 0° 19° (NNE) 3,344 7.8 -10.1°
Reaches altitude 10° 17:46:59 10° 28° (NNE) 2,411 7.2 -9.8°
Maximum altitude 17:51:52 36° 95° (E) 1,281 6.4 -9.3°
Drops below altitude 10° 17:56:44 10° 161° (SSE) 2,400 7.7 -8.8°
Sets 17:59:16 0° 170° (S) 3,328 8.3 -8.5°
